Regional Weather Roundup
Issued by NWS

Home | Current Version | Previous Version | Graphics & Text | Print | Product List | Glossary On
Versions: 1 2 3 4 5 6 7 8 9 10 11 12 13 14 15 16 17 18 19 20 21 22 23 24 25 26 27 28 29 30 31 32 33 34 35 36 37 38 39 40 41 42 43 44 45 46 47 48 49 50
890
ASUS45 KTFX 221810
RWRMT
MONTANA REGIONAL WEATHER ROUNDUP
NATIONAL WEATHER SERVICE GREAT FALLS MT
1100 AM MST WED NOV 22 2017

NOTE: "FAIR" INDICATES FEW OR NO CLOUDS BELOW 12000 FEET WITH NO
SIGNIFICANT WEATHER AND/OR OBSTRUCTIONS TO VISIBILITY.

MTZ001>007-043-221900-
WEST OF THE DIVIDE

CITY           SKY/WX    TMP DP  RH WIND       PRES   REMARKS
KALISPELL      CLOUDY    45  44  97 SW6       30.14S
MISSOULA       CLOUDY    41  40  96 CALM      30.23R
BUTTE          FAIR      50  37  61 S8        30.28R
MULLAN PASS    LGT RAIN  42  41  96 VRB5      30.21R VSB 1/4
ANACONDA         N/A     54  39  58 S18       30.24S
DEER LODGE       N/A     48  39  71 CALM      30.25R
EUREKA           N/A     46  45  93 MISG      30.11R
HAMILTON         N/A     55  46  71 S14       30.23S
LIBBY            N/A     39  39 100 CALM      30.14R
RONAN            N/A     52  47  83 E3        30.20R
$$

MTZ008-052>055-221900-
SOUTHWEST MONTANA

CITY           SKY/WX    TMP DP  RH WIND       PRES   REMARKS
BOZEMAN        CLOUDY    47  36  65 NE6       30.23R
DILLON         FAIR      53  38  56 SW13      30.30R
W YELLOWSTONE  CLOUDY    39  37  93 SW10G18   30.38S
ENNIS          CLOUDY    55  37  50 S17       30.34R
$$

MTZ009-010-012-014-046-048-049-054-221900-
EAST SLOPES AND CENTRAL MONTANA

CITY           SKY/WX    TMP DP  RH WIND       PRES   REMARKS
CUT BANK       FAIR      54  43  66 W29G38    29.99R
GREAT FALLS    FAIR      57  40  52 SW18G29   30.04R
MALMSTROM AFB  FAIR      57  42  55 SW28G37   30.03R
HELENA         FAIR      47  41  80 S5        30.15F
BOWMANS CRNR   FAIR      53  40  63 S10       30.07R
CHOTEAU          N/A     59  39  47 VRB7G16   30.04R
FAIRFIELD      PTSUNNY   59  38  46 W16G35    30.02R
POWER          FAIR      56  39  54 SW16G26   30.02R
RAYNESFORD     PTSUNNY   58  39  49 SW23G31   30.05R
ULM            CLOUDY    58  41  53 SW26G39   30.05R
$$

MTZ011-013-016-021-045-047-050-051-221900-
NORTH CENTRAL MONTANA

CITY           SKY/WX    TMP DP  RH WIND       PRES   REMARKS
HAVRE          FAIR      56  42  59 SW15      29.95R
LEWISTOWN      CLOUDY    58  40  51 SW21      30.06R
N BAR RANCH    FAIR      61  37  41 W16G30    30.06S
CHINOOK          N/A     61  41  48 W17       29.91R
DENTON         FAIR      59  42  52 W26G35    29.98R
GEYSER         FAIR      58  40  51 W30G43    30.00R
GRASS RANGE    FAIR      62  39  42 W25G33    29.99R
STANFORD       PTSUNNY   59  38  45 W21G29    30.05R
WINIFRED       CLOUDY    57  42  55 W21G29    30.01R
$$

MTZ017>020-022>027-061-062-221900-
NORTHEAST MONTANA

CITY           SKY/WX    TMP DP  RH WIND       PRES   REMARKS
GLASGOW        FAIR      48  33  56 NW5       29.90R
GLENDIVE       FAIR      61  40  45 W24       29.90S
JORDAN           N/A     65  40  39 W22G29    29.92R
SIDNEY         FAIR      44  32  62 S5        29.89R
WOLF POINT     FAIR      41  27  57 SW9       29.89R
MALTA          SUNNY     57  41  54 NW24G31   29.89R
PLENTYWOOD       N/A     45  34  65 NW25      29.82S
POPLAR           N/A     37  25  60 CALM      29.90R
$$

MTZ028>42-056>058-221900-
SOUTHCENTRAL AND SOUTHEAST MONTANA

CITY           SKY/WX    TMP DP  RH WIND       PRES   REMARKS
BAKER          FAIR      59  39  47 W26G33    29.96S
BILLINGS       PTSUNNY   52  38  58 SW21      30.09F
LIVINGSTON     FAIR      61  40  45 W31G40    30.17F
MILES CITY     PTSUNNY   57  42  57 W16G24    29.97R
BIG TIMBER     SUNNY     59  39  47 W24G33    30.15S
FORSYTH          N/A     61  39  44 SW15G22   29.99R
HARLOWTON      PTSUNNY   54  40  58 W25G32    30.09S
LAUREL           N/A     52  37  58 SW8       30.12F
ROUNDUP          N/A     55  40  57 S15       29.97R
$$

REGIONAL REPORTS...DAKOTAS

CITY           SKY/WX    TMP DP  RH WIND       PRES   REMARKS
WILLISTON      FAIR      43  31  62 S5        29.85R
MINOT          FAIR      38  22  52 N3        29.80F
DICKINSON      FAIR      60  38  43 W30G39    29.84S
BEACH          FAIR      57  36  44 W25G31    29.93S
CROSBY         FAIR      39  28  65 W15G22    29.82S WCI  31
TIOGA          FAIR      45  34  65 W20       29.80F
WATFORD CITY   FAIR      50  36  57 W15       29.84S
BISMARCK       PTSUNNY   43  22  43 S8        29.87F
GRAND FORKS    CLOUDY    22  15  75 S16       29.98F WCI   8
FARGO          CLOUDY    27  13  55 S14       30.01F WCI  16
BUFFALO SD       N/A     61  37  41 W25       29.90F
RAPID CITY     FAIR      71  37  28 NW26G41   30.02F
$$

REGIONAL REPORTS...WYOMING/IDAHO/WASHINGTON

CITY           SKY/WX    TMP DP  RH WIND       PRES   REMARKS
GILLETTE       FAIR      65  34  31 SW13      30.10R
SHERIDAN       CLOUDY    64  42  44 W12G18    30.10F
BUFFALO WY     FAIR      65  34  31 SW6       30.14F
CODY           FAIR      56  38  50 W16       30.23R
YELLOWSTONE LA   N/A     39  38  96 VRB3      30.42R
IDAHO FALLS    PTSUNNY   44  40  85 CALM      30.41S
SALMON         LGT RAIN  40  38  93 CALM      30.39R
BOISE          FAIR      54  50  86 CALM      30.31S
SPOKANE        PTSUNNY   47  46  97 NE3       30.13S
$$

REGIONAL REPORTS...ALBERTA

CITY           SKY/WX    TMP DP  RH WIND       PRES   REMARKS
EDMONTON       PTSUNNY   19  12  73 S3        29.85F
CALGARY        MOSUNNY   28  18  64 S7        29.86F WCI  21
LETHBRIDGE     PTSUNNY   54  41  62 SW22G36   29.91R
MEDICINE HAT   MOSUNNY   25  19  80 W3        29.95R
$$

REGIONAL REPORTS...SASKATCHEWAN

CITY           SKY/WX    TMP DP  RH WIND       PRES   REMARKS
SWIFT CURRENT  SUNNY     25  19  80 W16       29.86S WCI  12
REGINA         CLOUDY    21  14  73 NE5       29.87S
SASKATOON      PTSUNNY   12   5  73 W8        29.95S WCI   1
$$




USA.gov is the U.S. government's official web portal to all federal, state and local government web resources and services.